Date String (YYYY-MM-DD hh:mm:ss) UTC,Instrument flags,Ambient pressure (hPa),Sample flow (lpm),Bypass flow (lpm),Sample temperature (°C),Ambient temperature (°C),ASC tube jacket temperature (°C),LED temperature (°C),Box temperature (°C),Sample RH (%),Span deviation,Mass concentration (μg/m³),Mass concentration (μg/m³),Mass concentration (μg/m³)
DateTimeUTC,F1_M11,P_M11,Q1_M11,Q2_M11,T1_M11,T2_M11,T3_M11,T4_M11,T5_M11,U1_M11,ZSPAN_M11,X2_M11,X0_M11,X1_M11
2022-03-20 18:00:00,,0818.4,5.02,0.00,25.8,25.0,00.0,34.6,27.7,10.4,0000.0,0004.80,0012.17,0003.23
2022-03-20 18:01:00,,0818.4,5.00,0.00,25.9,25.1,00.0,34.7,27.8,10.0,0000.0,0004.87,0012.28,0003.22
2022-03-20 18:02:00,,0818.4,5.01,0.00,25.9,25.1,00.0,34.7,27.7,09.9,0000.0,0004.88,0012.31,0003.21
2022-03-20 18:03:00,,0818.3,4.98,0.00,25.9,25.1,00.0,34.7,27.8,09.7,0000.0,0004.85,0012.12,0003.20
2022-03-20 18:04:00,,0818.4,5.02,0.00,25.9,25.1,00.0,34.7,27.8,10.2,0000.0,0004.81,0011.46,0003.19
2022-03-20 18:05:00,,0818.4,4.98,0.00,25.9,25.1,00.0,34.7,27.8,10.3,0000.0,0004.80,0011.25,0003.19
2022-03-20 18:06:00,,0818.4,5.01,0.00,26.0,25.1,00.0,34.8,27.8,10.2,0000.0,0004.77,0011.23,0003.22
2022-03-20 18:07:00,,0818.4,4.99,0.00,26.0,25.1,00.0,34.8,27.8,10.3,0000.0,0004.80,0011.23,0003.25
2022-03-20 18:08:00,,0818.3,5.01,0.00,26.0,25.2,00.0,34.8,27.9,10.5,0000.0,0004.85,0011.15,0003.28
2022-03-20 18:09:00,,0818.3,4.99,0.00,26.0,25.2,00.0,34.8,27.9,10.3,0000.0,0004.87,0011.00,0003.31
2022-03-20 18:10:00,,0818.3,5.01,0.00,26.0,25.2,00.0,34.8,27.9,10.7,0000.0,0004.91,0011.13,0003.34
2022-03-20 18:11:00,,0818.3,5.00,0.00,26.0,25.2,00.0,34.8,27.9,10.9,0000.0,0004.92,0010.90,0003.38
2022-03-20 18:12:00,,0818.2,5.00,0.00,26.1,25.2,00.0,34.9,27.9,10.6,0000.0,0004.97,0011.26,0003.45
2022-03-20 18:13:00,,0818.2,5.00,0.00,26.1,25.2,00.0,34.9,27.9,11.0,0000.0,0005.06,0011.50,0003.51
2022-03-20 18:14:00,,0818.2,5.01,0.00,26.1,25.3,00.0,34.9,28.0,10.7,0000.0,0005.15,0011.81,0003.57
2022-03-20 18:15:00,,0818.1,5.00,0.00,26.1,25.3,00.0,34.9,28.0,10.6,0000.0,0005.26,0012.38,0003.64
2022-03-20 18:16:00,,0818.1,5.01,0.00,26.1,25.3,00.0,34.9,28.0,10.8,0000.0,0005.32,0012.93,0003.69
2022-03-20 18:17:00,,0818.1,4.99,0.00,26.2,25.3,00.0,34.9,28.0,10.6,0000.0,0005.38,0012.93,0003.75
2022-03-20 18:18:00,,0818.0,4.99,0.00,26.2,25.3,00.0,35.0,28.1,10.7,0000.0,0005.44,0013.25,0003.79
2022-03-20 18:19:00,,0818.0,5.01,0.00,26.2,25.4,00.0,35.0,28.1,10.8,0000.0,0005.48,0013.49,0003.85
2022-03-20 18:20:00,,0818.1,4.99,0.00,26.2,25.4,00.0,35.0,28.1,11.2,0000.0,0005.52,0013.48,0003.92
2022-03-20 18:21:00,,0818.0,4.99,0.00,26.2,25.4,00.0,35.0,28.1,10.8,0000.0,0005.55,0013.42,0003.97
2022-03-20 18:22:00,,0818.0,5.02,0.00,26.3,25.5,00.0,35.0,28.2,10.9,0000.0,0005.60,0013.29,0004.01
2022-03-20 18:23:00,,0818.0,5.00,0.00,26.3,25.5,00.0,35.1,28.2,10.6,0000.0,0005.60,0012.71,0004.06
2022-03-20 18:24:00,,0818.0,4.99,0.00,26.3,25.5,00.0,35.1,28.2,10.6,0000.0,0005.61,0012.62,0004.09
2022-03-20 18:25:00,,0818.0,5.00,0.00,26.4,25.5,00.0,35.1,28.2,10.5,0000.0,0005.64,0012.42,0004.12
2022-03-20 18:26:00,,0818.0,5.00,0.00,26.4,25.5,00.0,35.1,28.3,10.2,0000.0,0005.69,0012.18,0004.15
2022-03-20 18:27:00,,0818.0,4.99,0.00,26.4,25.5,00.0,35.1,28.3,10.2,0000.0,0005.76,0012.28,0004.19
2022-03-20 18:28:00,,0818.0,5.02,0.00,26.4,25.6,00.0,35.2,28.3,10.3,0000.0,0005.77,0012.34,0004.20
2022-03-20 18:29:00,,0818.0,5.01,0.00,26.4,25.6,00.0,35.2,28.3,10.2,0000.0,0005.83,0012.43,0004.22
2022-03-20 18:30:00,,0817.9,5.00,0.00,26.4,25.6,00.0,35.2,28.3,10.2,0000.0,0005.84,0012.21,0004.24
2022-03-20 18:31:00,,0817.9,5.00,0.00,26.4,25.6,00.0,35.2,28.3,10.2,0000.0,0005.88,0012.30,0004.25
2022-03-20 18:32:00,,0817.9,5.00,0.00,26.5,25.7,00.0,35.2,28.3,10.5,0000.0,0005.90,0012.40,0004.26
2022-03-20 18:33:00,,0817.9,5.00,0.00,26.5,25.7,00.0,35.3,28.4,10.1,0000.0,0005.94,0012.42,0004.30
2022-03-20 18:34:00,,0817.9,5.01,0.00,26.5,25.7,00.0,35.3,28.4,09.9,0000.0,0006.00,0012.71,0004.32
2022-03-20 18:35:00,,0817.8,5.00,0.00,26.5,25.7,00.0,35.3,28.4,10.0,0000.0,0006.04,0013.40,0004.35
2022-03-20 18:36:00,,0817.8,5.00,0.00,26.6,25.8,00.0,35.3,28.5,10.0,0000.0,0006.09,0013.48,0004.40
2022-03-20 18:37:00,,0817.8,4.99,0.00,26.6,25.8,00.0,35.4,28.5,10.1,0000.0,0006.13,0013.98,0004.43
2022-03-20 18:38:00,,0817.8,5.00,0.00,26.6,25.8,00.0,35.4,28.5,10.7,0000.0,0006.08,0013.87,0004.46
2022-03-20 18:39:00,,0817.8,5.00,0.00,26.6,25.9,00.0,35.4,28.5,10.3,0000.0,0006.14,0014.10,0004.49
2022-03-20 18:40:00,,0817.8,5.00,0.00,26.6,25.9,00.0,35.4,28.6,10.4,0000.0,0006.16,0013.97,0004.54
2022-03-20 18:41:00,,0817.8,5.00,0.00,26.7,25.9,00.0,35.4,28.6,10.2,0000.0,0006.24,0013.97,0004.58
2022-03-20 18:42:00,,0817.8,5.00,0.00,26.7,25.9,00.0,35.5,28.6,10.0,0000.0,0006.27,0013.97,0004.62
2022-03-20 18:43:00,,0817.7,5.02,0.00,26.7,25.9,00.0,35.5,28.6,09.8,0000.0,0006.33,0013.95,0004.68
2022-03-20 18:44:00,,0817.7,5.00,0.00,26.7,25.9,00.0,35.5,28.6,10.1,0000.0,0006.39,0014.13,0004.73
2022-03-20 18:45:00,,0817.7,4.99,0.00,26.7,26.0,00.0,35.5,28.7,10.4,0000.0,0006.43,0014.18,0004.77
2022-03-20 18:46:00,,0817.7,5.00,0.00,26.8,26.0,00.0,35.5,28.7,09.9,0000.0,0006.46,0013.50,0004.80
2022-03-20 18:47:00,,0817.7,5.00,0.00,26.8,26.0,00.0,35.6,28.7,09.8,0000.0,0006.49,0013.53,0004.83
2022-03-20 18:48:00,,0817.6,5.01,0.00,26.8,26.0,00.0,35.6,28.7,10.1,0000.0,0006.48,0013.13,0004.86
2022-03-20 18:49:00,,0817.6,5.00,0.00,26.8,26.0,00.0,35.6,28.8,09.9,0000.7,0006.53,0012.83,0004.90
2022-03-20 18:50:00,,0817.6,5.00,0.00,26.9,26.1,00.0,35.6,28.8,10.1,0001.7,0006.60,0012.75,0004.95
2022-03-20 18:51:00,,0817.6,5.01,0.00,26.9,26.1,00.0,35.7,28.8,10.4,0000.0,0006.67,0012.78,0005.01
2022-03-20 18:52:00,,0817.6,5.00,0.00,26.9,26.1,00.0,35.7,28.8,10.3,0002.3,0006.69,0012.87,0005.06
2022-03-20 18:53:00,,0817.5,4.99,0.00,26.9,26.1,00.0,35.7,28.8,09.8,0000.0,0006.77,0013.44,0005.11
2022-03-20 18:54:00,,0817.5,5.01,0.00,27.0,26.1,00.0,35.7,28.8,09.4,0000.0,0006.79,0014.32,0005.14
2022-03-20 18:55:00,,0817.5,5.00,0.00,27.0,26.1,00.0,35.7,28.9,09.6,0000.0,0006.83,0014.65,0005.17
2022-03-20 18:56:00,,0817.6,5.00,0.00,27.0,26.2,00.0,35.8,28.9,10.1,0000.0,0006.85,0014.58,0005.22
2022-03-20 18:57:00,,0817.6,5.01,0.00,27.0,26.2,00.0,35.8,28.9,10.1,0000.0,0006.89,0014.81,0005.27
2022-03-20 18:58:00,,0817.6,5.00,0.00,27.0,26.2,00.0,35.8,28.9,10.3,0000.0,0006.93,0014.81,0005.35
2022-03-20 18:59:00,,0817.5,5.00,0.00,27.1,26.2,00.0,35.8,29.0,10.1,0000.0,0007.00,0014.86,0005.45
